| time (UTC) | temp C | wind direction | speed KPH | gust KPH | rain 1hr cm | rain 24hr cm | rain mn cm | humidity % | barometer mb |
| 20260505041036 | 14 | 112 | 0.0 | 0.0 | 0.00 | 0.00 | 0.00 | 59 | 1028.2 |
| 20260505040134 | 15 | 112 | 0.0 | 0.0 | 0.00 | 0.00 | 0.00 | 59 | 1028.2 |
| 20260505035123 | 15 | 112 | 0.0 | 0.0 | 0.00 | 0.00 | 0.00 | 58 | 1028.2 |
| 20260505035023 | 15 | 112 | 0.0 | 0.0 | 0.00 | 0.00 | 0.00 | 59 | 1028.1 |
| 20260505034021 | 15 | 112 | 0.0 | 0.0 | 0.00 | 0.00 | 0.00 | 59 | 1028.1 |
| 20260505032124 | 16 | 112 | 0.0 | 0.0 | 0.00 | 0.00 | 0.00 | 56 | 1028.0 |
| 20260505031122 | 16 | 112 | 0.0 | 0.0 | 0.00 | 0.00 | 0.00 | 55 | 1028.0 |
| 20260505030123 | 16 | 112 | 0.0 | 0.0 | 0.00 | 0.00 | 0.00 | 56 | 1028.0 |
| 20260505025220 | 16 | 112 | 0.0 | 0.0 | 0.00 | 0.00 | 0.00 | 55 | 1028.0 |
| 20260505024220 | 16 | 112 | 0.0 | 0.0 | 0.00 | 0.00 | 0.00 | 54 | 1027.9 |
| 20260505023222 | 16 | 112 | 0.0 | 0.0 | 0.00 | 0.00 | 0.00 | 54 | 1027.9 |
| 20260505021222 | 16 | 180 | 0.0 | 0.0 | 0.00 | 0.00 | 0.00 | 54 | 1027.9 |
| 20260505020224 | 16 | 180 | 0.0 | 0.0 | 0.00 | 0.00 | 0.00 | 54 | 1028.0 |
| 20260505015321 | 16 | 180 | 0.0 | 0.0 | 0.00 | 0.00 | 0.00 | 54 | 1027.7 |
| 20260505013323 | 17 | 180 | 0.0 | 0.0 | 0.00 | 0.00 | 0.00 | 51 | 1027.7 |
| 20260505012325 | 17 | 180 | 0.0 | 0.0 | 0.00 | 0.00 | 0.00 | 52 | 1027.6 |
| 20260505011322 | 17 | 180 | 0.0 | 0.0 | 0.00 | 0.00 | 0.00 | 50 | 1027.4 |
| 20260505010324 | 17 | 180 | 0.0 | 0.0 | 0.00 | 0.00 | 0.00 | 49 | 1027.3 |
| 20260505004322 | 18 | 180 | 0.0 | 0.0 | 0.00 | 0.00 | 0.00 | 48 | 1027.2 |
| 20260505002423 | 19 | 180 | 0.0 | 0.0 | 0.00 | 0.00 | 0.00 | 45 | 1027.0 |
| 20260505001422 | 20 | 180 | 0.0 | 0.0 | 0.00 | 0.00 | 0.00 | 43 | 1026.9 |
| 20260505000422 | 21 | 180 | 0.0 | 0.0 | 0.00 | 0.00 | 0.00 | 40 | 1026.8 |
| 20260504235423 | 21 | 180 | 0.0 | 0.0 | 0.00 | 0.00 | 0.00 | 40 | 1026.7 |
| 20260504234424 | 21 | 186 | 0.0 | 0.0 | 0.00 | 0.00 | 0.00 | 40 | 1026.7 |
| 20260504233422 | 21 | 180 | 0.0 | 0.0 | 0.00 | 0.00 | 0.00 | 38 | 1026.7 |
| 20260504232421 | 22 | 180 | 0.0 | 0.0 | 0.00 | 0.00 | 0.00 | 38 | 1026.6 |
| 20260504230421 | 23 | 134 | 0.0 | 0.0 | 0.00 | 0.00 | 0.00 | 34 | 1026.4 |
| 20260504225420 | 23 | 127 | 0.0 | 0.0 | 0.00 | 0.00 | 0.00 | 35 | 1026.4 |
| 20260504223520 | 23 | 174 | 0.0 | 0.0 | 0.00 | 0.00 | 0.00 | 34 | 1026.3 |
| 20260504222522 | 23 | 181 | 0.0 | 0.0 | 0.00 | 0.00 | 0.00 | 33 | 1026.5 |
| 20260504221620 | 24 | 167 | 0.0 | 0.0 | 0.00 | 0.00 | 0.00 | 33 | 1026.4 |
| 20260504221520 | 24 | 183 | 0.0 | 0.0 | 0.00 | 0.00 | 0.00 | 32 | 1026.3 |
| 20260504215620 | 24 | 171 | 0.0 | 0.0 | 0.00 | 0.00 | 0.00 | 33 | 1026.4 |
| 20260504214621 | 24 | 199 | 0.0 | 0.0 | 0.00 | 0.00 | 0.00 | 32 | 1026.5 |
| 20260504213720 | 24 | 160 | 0.0 | 0.0 | 0.00 | 0.00 | 0.00 | 31 | 1026.5 |
| 20260504211722 | 24 | 152 | 0.0 | 0.0 | 0.00 | 0.00 | 0.00 | 31 | 1026.6 |
| 20260504210821 | 24 | 191 | 0.0 | 0.0 | 0.00 | 0.00 | 0.00 | 31 | 1026.7 |
| 20260504205837 | 24 | 214 | 0.0 | 0.0 | 0.00 | 0.00 | 0.00 | 30 | 1026.6 |
| 20260504204921 | 25 | 143 | 0.0 | 0.0 | 0.00 | 0.00 | 0.00 | 30 | 1026.4 |
| 20260504203921 | 24 | 206 | 0.0 | 0.0 | 0.00 | 0.00 | 0.00 | 29 | 1026.4 |
| 20260504201922 | 25 | 142 | 0.0 | 0.0 | 0.00 | 0.00 | 0.00 | 29 | 1026.8 |
| 20260504195922 | 25 | 198 | 0.0 | 0.0 | 0.00 | 0.00 | 0.00 | 30 | 1026.9 |
| 20260504195020 | 24 | 196 | 0.0 | 0.0 | 0.00 | 0.00 | 0.00 | 30 | 1027.0 |
| 20260504194920 | 24 | 151 | 0.0 | 0.0 | 0.00 | 0.00 | 0.00 | 29 | 1027.0 |
| 20260504193920 | 24 | 199 | 0.0 | 0.0 | 0.00 | 0.00 | 0.00 | 29 | 1027.3 |
| 20260504192922 | 24 | 200 | 0.0 | 0.0 | 0.00 | 0.00 | 0.00 | 29 | 1027.3 |
| 20260504192022 | 24 | 192 | 0.0 | 0.0 | 0.00 | 0.00 | 0.00 | 31 | 1027.4 |
| 20260504191022 | 23 | 191 | 0.0 | 0.0 | 0.00 | 0.00 | 0.00 | 30 | 1027.6 |
| 20260504190021 | 23 | 189 | 0.0 | 0.0 | 0.00 | 0.00 | 0.00 | 30 | 1027.9 |
| 20260504185119 | 23 | 198 | 0.0 | 0.0 | 0.00 | 0.00 | 0.00 | 30 | 1028.1 |
| 20260504184123 | 23 | 212 | 0.0 | 0.0 | 0.00 | 0.00 | 0.00 | 30 | 1028.2 |
| 20260504183220 | 23 | 181 | 0.0 | 0.0 | 0.00 | 0.00 | 0.00 | 32 | 1028.3 |
| 20260504182222 | 23 | 183 | 0.0 | 0.0 | 0.00 | 0.00 | 0.00 | 32 | 1028.6 |
| 20260504181321 | 23 | 202 | 0.0 | 0.0 | 0.00 | 0.00 | 0.00 | 31 | 1028.7 |
| 20260504174322 | 22 | 204 | 0.0 | 0.0 | 0.00 | 0.00 | 0.00 | 31 | 1029.0 |
| 20260504173421 | 22 | 190 | 0.0 | 0.0 | 0.00 | 0.00 | 0.00 | 31 | 1029.1 |
| 20260504172421 | 22 | 201 | 0.0 | 0.0 | 0.00 | 0.00 | 0.00 | 32 | 1029.3 |
| 20260504170520 | 22 | 199 | 0.0 | 0.0 | 0.00 | 0.00 | 0.00 | 32 | 1029.7 |
| 20260504151020 | 20 | 189 | 0.0 | 0.0 | 0.00 | 0.00 | 0.00 | 37 | 1030.8 |
| 20260504141221 | 17 | 198 | 0.0 | 0.0 | 0.00 | 0.00 | 0.00 | 44 | 1031.3 |
| 20260504140222 | 17 | 112 | 0.0 | 0.0 | 0.00 | 0.00 | 0.00 | 46 | 1031.1 |
| 20260504130430 | 13 | 123 | 0.0 | 0.0 | 0.00 | 0.00 | 0.00 | 53 | 1031.9 |
| 20260504081919 | 7 | 112 | 0.0 | 0.0 | 0.00 | 0.00 | 0.00 | 78 | 1032.6 |
| 20260504080920 | 7 | 180 | 0.0 | 0.0 | 0.00 | 0.00 | 0.00 | 81 | 1032.4 |
| 20260504060120 | 6 | 112 | 0.0 | 0.0 | 0.00 | 0.00 | 0.00 | 83 | 1032.8 |
| 20260504050320 | 5 | 112 | 0.0 | 0.0 | 0.00 | 0.00 | 0.00 | 83 | 1032.7 |
| 20260504045323 | 5 | 112 | 0.0 | 0.0 | 0.00 | 0.00 | 0.00 | 82 | 1032.6 |
| 20260504044420 | 5 | 112 | 0.0 | 0.0 | 0.00 | 0.00 | 0.00 | 83 | 1032.5 |
| 20260504043419 | 4 | 112 | 0.0 | 0.0 | 0.00 | 0.00 | 0.00 | 83 | 1032.5 |
| 20260504042437 | 4 | 112 | 0.0 | 0.0 | 0.00 | 0.00 | 0.00 | 82 | 1032.3 |